Weather Roundup
Issued by NWS Corpus Christi, TX

Home | Current Version | Previous Version | Text Only | Print | Product List | Glossary On
Versions: 1 2 3 4 5 6 7 8 9 10 11 12 13 14 15 16 17 18 19 20 21 22 23 24 25 26 27 28 29 30 31 32 33 34 35 36 37 38 39 40 41 42 43 44 45 46 47 48 49 50
000
ASUS44 KCRP 191110
HRRCRP

SOUTH TEXAS REGIONAL WEATHER ROUNDUP
NATIONAL WEATHER SERVICE CORPUS CHRISTI TX
600 AM CDT SUN APR 19 2015


TXZ229>244-191200-
...CORPUS CHRISTI AREA OBSERVATIONS...

CITY           SKY/WX    TMP DP  RH WIND       PRES   REMARKS
CORPUS CHRISTI MOCLDY    67  66  97 CALM      29.81R
NAS CORPUS CHR CLEAR     68  32  26 SE5       29.80S
ROCKPORT       CLEAR     69  67  93 SE12      29.80S
KINGSVILLE NAS CLOUDY    70  70 100 E5        29.80R FOG
ALICE          CLOUDY    70  68  93 SE6       29.80R FOG
FALFURRIAS     CLOUDY    70  68  95 CALM      29.80R
$$

...VICTORIA AREA OBSERVATIONS...

CITY           SKY/WX    TMP DP  RH WIND       PRES   REMARKS
VICTORIA       PTCLDY    62  62 100 CALM      29.81R
BEEVILLE       FOG       67  67 100 S3        29.80S VSB 1/4
PLEASANTON     CLOUDY    67  65  96 CALM      29.81S FOG
SAN ANTONIO    FOG       68  66  93 S6        29.82R VSB 1/8
$$

...LAREDO AREA OBSERVATIONS...

CITY           SKY/WX    TMP DP  RH WIND       PRES   REMARKS
LAREDO         CLEAR     65  65 100 E5        29.80S
COTULLA        CLOUDY    68  67  96 SE6       29.79S FOG
DEL RIO        FOG       66  66 100 SE7       29.80R VSB 1/2
MCALLEN        CLOUDY    75  71  87 SE5       29.77R
HEBBRONVILLE   FOG       64  63  97 CALM      29.81R VSB 1/4
$$

...OTHER TEXAS OBSERVATIONS...

CITY           SKY/WX    TMP DP  RH WIND       PRES   REMARKS
BROWNSVILLE    PTCLDY    71  70  96 SE3       29.76F
HOUSTON        PTCLDY    59  58  96 CALM      29.79R
COL. STATION   CLEAR     58  56  93 MISG      29.79S
AUSTIN         CLOUDY    60  60 100 CALM      29.79F
WACO           MOCLDY    60  58  92 S12       29.74F
FORT WORTH     PTCLDY    54  54 100 SE6       29.73F
WICHITA FALLS  CLEAR     51  49  92 E8        29.70F
LUBBOCK        CLEAR     47  37  68 N16       29.82R
EL PASO        PTCLDY    64  17  16 W14       29.93S
$$

...MARINE OBSERVATIONS...

STATION/POSITION TIME  SKY/WX   TEMP    WIND        PRES    VSBY  WAVE   SWELL
                                AIR SEA DIR/SP/G                  HT/PER HT/PER
                 (UTC)          (F)     (DEG/KT/KT) (MB)    (MI)  (FT/S) (FT/S)
PORT ARANSAS     1100            72 73  100/  7/  8 1009.6R
BUOY 90 E PORT A 1050            72 74   90/ 10/ 12 1009.6F         3/ 4   2/ 6
BUOY 45 SE BAFFI 1050            74 74   60/ 10/ 12 1009.1R         4/ 6   3/ 6
BUOY 200 E PT IS 1050            77 77   90/  4/  6 1008.3R         3/ 7   3/ 7
BUOY 15 E GALVES 1050            69 72  150/  8/ 10 1008.7F         2/ 6   2/ 6
$$



USA.gov is the U.S. government's official web portal to all federal, state and local government web resources and services.